Location: Vlissingen
(51.4500°N, 3.5830°E)
Time: 12:11:38
(UTC+01:00)

N. Korean satellite - Pass Details

Date: 07 December 2021
Orbit: 447 x 491 km, 97.3° (Epoch: 21 January)

Event Time Altitude Azimuth Distance (km) Brightness Sun altitude
Rises 07:29:44 0° 357° (N) 2,470 9.9 -9.8°
Reaches altitude 10° 07:32:33 10° 331° (NNW) 1,588 8.7 -9.4°
Maximum altitude 07:34:19 14° 299° (WNW) 1,370 8.2 -9.1°
Drops below altitude 10° 07:36:05 10° 268° (W) 1,579 8.6 -8.9°
Sets 07:38:53 0° 241° (WSW) 2,446 9.8 -8.5°
